Sisseton, SD

5:56 AM CDT on June 23, 2017 (GMT -0500)
Sisseton

Weather History for K8D3 - May, 2014

Change the Weather History Date:

Saturday, May 3, 2014

  Actual Average Record
Temperature  
Mean Temperature 45 °F 53 °F  
Max Temperature 56 °F 65 °F 93 °F (1949)
Min Temperature 33 °F 40 °F 19 °F (2005)
Degree Days  
Heating Degree Days 20 13  
Month to date heating degree days 55 39  
Since 1 July heating degree days 8799 7998  
Cooling Degree Days 0 0  
Month to date cooling degree days 0 0  
Year to date cooling degree days 0 1  
Moisture  
Dew Point 34 °F    
Average Humidity 66    
Maximum Humidity 89    
Minimum Humidity 43    
Precipitation  
Precipitation 0.00 in 0.08 in 1.27 in (1905)
Month to date precipitation 0.00 0.26  
Year to date precipitation 4.64 4.52  
Sea Level Pressure  
Sea Level Pressure 29.91 in    
Wind  
Wind Speed 13 mph (NNW)    
Max Wind Speed 24 mph    
Max Gust Speed 33 mph    
T = Trace of Precipitation, MM = Missing Value Source: NWS Daily Summary

Daily Weather History Graph

Daily Weather History Graph

Search for Another Location

Airport or City:

Trip Planner

Search our weather history database for the weather conditions in past years. The results will help you decide how hot, cold, wet, or windy it might be!

Date:

Astronomy

May. 03, 2014 Rise Set
Actual Time 6:12 AM CDT 8:37 PM CDT
Civil Twilight 5:39 AM CDT 9:11 PM CDT
Nautical Twilight 4:58 AM CDT 9:52 PM CDT
Astronomical Twilight 4:11 AM CDT 10:39 PM CDT
Moon 9:40 AM CDT (5/3) 12:02 AM CDT (5/3)
Length of Visible Light 15h 31m
Length of Day
14h 25m
Waxing Crescent, 20% of the Moon is Illuminated
May 3
Waxing Crescent
May 6
First Quarter
May 14
Full
May 21
Last Quarter
May 28
New

Hourly Weather History & Observations

Time (CDT) Temp. Windchill Dew Point Humidity Pressure Visibility Wind Dir Wind Speed Gust Speed Precip Events Conditions
12:56 AM 37.9 °F - 33.1 °F 83% 29.79 in - Calm Calm - N/A   Unknown
1:56 AM 37.9 °F 34.4 °F 33.1 °F 83% 29.81 in - NNW 4.6 mph - N/A   Unknown
2:56 AM 41.0 °F 34.7 °F 34.0 °F 76% 29.82 in - NNW 10.4 mph - N/A   Unknown
3:56 AM 39.0 °F 34.8 °F 34.0 °F 82% 29.81 in - NW 5.8 mph - N/A   Unknown
4:56 AM 37.9 °F - 34.0 °F 86% 29.82 in - Calm Calm - N/A   Unknown
5:56 AM 39.0 °F 35.7 °F 33.1 °F 79% 29.84 in - North 4.6 mph - N/A   Unknown
6:56 AM 43.0 °F 36.4 °F 37.9 °F 82% 29.86 in - NNW 12.7 mph - N/A   Unknown
7:56 AM 45.0 °F 38.5 °F 39.0 °F 80% 29.87 in - NNW 13.8 mph - N/A   Unknown
8:56 AM 48.0 °F - 39.0 °F 71% 29.89 in - NNW 19.6 mph - N/A   Unknown
9:56 AM 50.0 °F - 37.9 °F 63% 29.91 in - North 16.1 mph - N/A   Unknown
10:56 AM 52.0 °F - 35.1 °F 53% 29.91 in - NNW 17.3 mph - N/A   Unknown
11:56 AM 54.0 °F - 34.0 °F 47% 29.91 in - NNW 19.6 mph 24.2 mph N/A   Unknown
12:56 PM 55.9 °F - 34.0 °F 44% 29.91 in - NNW 17.3 mph 24.2 mph N/A   Unknown
1:56 PM 54.0 °F - 34.0 °F 47% 29.91 in - NNW 18.4 mph 27.6 mph N/A   Unknown
2:56 PM 54.0 °F - 34.0 °F 47% 29.91 in - North 13.8 mph - N/A   Unknown
3:56 PM 52.0 °F - 35.1 °F 53% 29.93 in - North 17.3 mph - N/A   Unknown
4:56 PM 52.0 °F - 34.0 °F 50% 29.94 in - NNW 18.4 mph - N/A   Unknown
5:56 PM 52.0 °F - 32.0 °F 47% 29.95 in - NNW 16.1 mph - N/A   Unknown
6:56 PM 51.1 °F - 33.1 °F 50% 29.96 in - North 18.4 mph - N/A   Unknown
7:56 PM 48.9 °F - 30.9 °F 50% 29.98 in - North 16.1 mph - N/A   Unknown
8:56 PM 44.1 °F 36.5 °F 32.0 °F 63% 30.01 in - North 17.3 mph - N/A   Unknown
9:56 PM 37.9 °F 32.1 °F 32.0 °F 79% 30.05 in - NNE 8.1 mph - N/A   Unknown
10:56 PM 36.0 °F 30.3 °F 30.9 °F 82% 30.07 in - NNE 6.9 mph - N/A   Unknown
11:56 PM 34.0 °F 27.2 °F 30.9 °F 89% 30.08 in - NW 8.1 mph - N/A   Unknown